Timestamp[UTC];2m Lufttemperatur [degC] (tas);Stations-Luftdruck [Pa] (ps);relative Luftfeuchtigkeit [%] (hurs);spezifische Luftfeuchtigkeit [kg/kg] (huss);Niederschlagsmenge [mm] (pr);Windgeschwindigkeit in 2m [m/s] (sfcWind);Windrichtung [deg];maximale Windgeschwindigkeit [m/s] (wsgsmax);u-Windkomponente [m/s] (uas);v-Windkomponente [m/s] (vas);Sonneneinstrahlung [W/m2];Blitzrate [n];Blitzentfernung [km];Bodenfeuchte in 5cm Tiefe [vol%];Bodenfeuchte in 15cm Tiefe [vol%];Bodenfeuchte in 30cm Tiefe [vol%];Bodenfeuchte in 60cm Tiefe [vol%];Bodentemperatur in 5cm Tiefe [degC];Bodentemperatur in 15cm Tiefe [degC];Bodentemperatur in 30cm Tiefe [degC];Bodentemperatur in 60cm Tiefe [degC];Matrixpotential in 30cm Tiefe [kPa];Bodenfeuchte aus CRNS [vol%] (mrso);Neutronen Anzahl [N/h]
2023-10-01 00:00:00;9,0;100787;95;0,0067;0,04;0,7;243;1,6;-0,61;-0,3;0;0;nan;21,3;16,9;10,9;19,2;13,6;14,6;15,2;15,4;14,5;14,6;1732
2023-10-01 01:00:00;9,0;100740;94;0,0067;0,03;0,8;225;1,8;-0,58;-0,57;0;0;nan;21,3;16,9;10,9;19,2;13,4;14,4;15,2;15,4;14,4;14,7;1728
2023-10-01 02:00:00;10,7;100697;90;0,0072;0,04;0,5;231;1,5;-0,37;-0,3;0;0;nan;21,3;16,9;10,9;19,2;13,3;14,3;15,2;15,4;14,3;14,8;1724
2023-10-01 03:00:00;11,2;100690;90;0,0074;0,0;1,0;214;2,7;-0,55;-0,83;0;0;nan;21,2;16,9;10,9;19,2;13,2;14,2;15,1;15,4;14,3;14,8;1723
2023-10-01 04:00:00;11,1;100690;90;0,0074;0,02;0,6;204;1,4;-0,25;-0,57;0;0;nan;21,2;16,9;10,9;19,2;13,3;14,1;15,0;15,4;14,3;14,9;1722
2023-10-01 05:00:00;10,7;100700;91;0,0073;0,0;0,6;219;1,8;-0,41;-0,51;0;0;nan;21,2;16,9;10,9;19,2;13,2;14,1;15,0;15,4;14,3;15,0;1719
2023-10-01 06:00:00;12,2;100692;91;0,008;0,0;1,2;217;2,5;-0,71;-0,94;57;0;nan;21,2;16,9;10,9;19,2;13,2;14,0;14,9;15,4;14,3;14,9;1722
2023-10-01 07:00:00;15,7;100680;87;0,0096;0,0;2,3;220;3,9;-1,48;-1,75;188;0;nan;21,2;16,9;10,9;19,2;13,4;14,0;14,9;15,4;14,4;15,0;1717
2023-10-01 08:00:00;17,8;100665;82;0,0105;0,0;2,1;215;3,8;-1,2;-1,68;296;0;nan;21,2;16,9;10,9;19,2;13,6;14,0;14,8;15,4;14,5;15,1;1715
2023-10-01 09:00:00;19,8;100660;77;0,011;0,0;1,4;204;3,4;-0,58;-1,32;376;0;nan;21,1;16,8;10,9;19,2;14,0;14,1;14,8;15,3;14,6;15,5;1702
2023-10-01 10:00:00;21,1;100640;73;0,0113;0,0;1,4;165;3,6;0,35;-1,33;462;0;nan;21,0;16,8;10,9;19,2;14,4;14,2;14,7;15,3;14,8;15,4;1705
2023-10-01 11:00:00;23,3;100597;63;0,0112;0,0;1,1;233;4,0;-0,85;-0,63;434;0;nan;20,9;16,8;10,9;19,2;14,8;14,4;14,7;15,3;15,1;15,4;1705
2023-10-01 12:00:00;24,4;100550;56;0,0106;0,0;1,3;258;3,3;-1,31;-0,27;459;0;nan;20,8;16,8;10,9;19,2;15,2;14,5;14,7;15,3;15,2;15,5;1703
2023-10-01 13:00:00;25,2;100520;49;0,0098;0,0;1,1;297;3,4;-1,0;0,5;430;0;nan;20,7;16,8;10,9;19,2;15,5;14,7;14,7;15,3;15,4;15,5;1703
2023-10-01 14:00:00;25,6;100465;53;0,0108;0,0;1,5;296;4,0;-1,23;0,58;306;0;nan;20,6;16,8;10,9;19,2;15,7;14,9;14,8;15,3;15,5;15,4;1707
2023-10-01 15:00:00;25,4;100430;58;0,0117;0,0;1,3;275;3,8;-1,3;0,11;150;0;nan;20,5;16,8;10,9;19,2;15,9;15,1;14,8;15,2;15,6;15,4;1705
2023-10-01 16:00:00;24,6;100420;62;0,0119;0,0;1,0;246;2,7;-0,89;-0,4;62;0;nan;20,4;16,8;10,9;19,2;16,0;15,3;14,9;15,2;15,6;15,4;1705
2023-10-01 17:00:00;20,9;100467;73;0,0113;0,0;1,1;222;2,1;-0,74;-0,83;10;0;nan;20,3;16,8;10,9;19,2;15,9;15,4;14,9;15,2;15,5;15,5;1703
2023-10-01 18:00:00;19,2;100480;78;0,0108;0,0;1,6;219;3,1;-0,99;-1,23;0;0;nan;20,3;16,8;10,9;19,2;15,6;15,4;15,0;15,2;15,4;15,4;1704
2023-10-01 19:00:00;17,4;100488;83;0,0102;0,0;0,9;219;1,9;-0,59;-0,72;0;0;nan;20,3;16,8;10,9;19,2;15,4;15,4;15,0;15,2;15,3;15,4;1705
2023-10-01 20:00:00;17,2;100480;82;0,01;0,0;1,5;220;2,4;-0,95;-1,12;0;0;nan;20,3;16,8;10,9;19,2;15,3;15,4;15,1;15,2;15,2;15,3;1710
2023-10-01 21:00:00;16,9;100460;82;0,0098;0,0;1,1;223;2,8;-0,76;-0,82;0;0;nan;20,3;16,8;10,9;19,2;15,2;15,3;15,1;15,2;15,2;15,3;1710
2023-10-01 22:00:00;16,2;100440;84;0,0096;0,0;0,8;226;2,5;-0,56;-0,54;0;0;nan;20,3;16,8;10,9;19,2;15,1;15,3;15,2;15,2;15,1;15,2;1710
2023-10-01 23:00:00;nan;nan;nan;nan;0,0;nan;nan;nan;nan;nan;nan;0;nan;20,3;16,8;10,9;19,2;14,9;15,2;15,2;15,2;15,1;15,2;1712
2023-10-02 00:00:00;15,4;100430;85;0,0092;0,0;0,7;211;1,4;-0,36;-0,59;0;0;nan;20,2;16,8;10,9;19,2;14,7;15,2;15,2;15,2;15,0;15,1;1713
2023-10-02 01:00:00;15,6;100420;83;0,0091;0,0;0,7;220;1,8;-0,45;-0,53;0;0;nan;20,2;16,8;10,9;19,2;14,6;15,0;15,2;15,2;14,9;15,2;1713
2023-10-02 02:00:00;14,6;100400;87;0,009;0,0;0,7;163;1,5;0,21;-0,7;0;0;nan;20,2;16,8;10,9;19,2;14,5;15,0;15,2;15,2;14,8;15,1;1715
2023-10-02 03:00:00;nan;nan;nan;nan;0,0;nan;nan;nan;nan;nan;nan;0;nan;20,2;16,8;10,9;19,2;14,3;14,9;15,2;15,3;14,8;15,1;1716
2023-10-02 04:00:00;14,2;100355;86;0,0087;0,0;0,5;184;1,2;-0,04;-0,5;0;0;nan;20,2;16,8;10,9;19,2;14,2;14,8;15,1;15,3;14,7;15,1;1716
2023-10-02 05:00:00;14,7;100330;86;0,0089;0,0;0,8;197;2,2;-0,24;-0,79;3;0;nan;20,1;16,8;10,9;19,2;14,2;14,7;15,1;15,3;14,7;15,1;1716
2023-10-02 06:00:00;15,8;100345;83;0,0093;0,0;1,2;197;2,3;-0,34;-1,1;59;0;nan;20,1;16,8;10,9;19,2;14,1;14,7;15,1;15,3;14,7;15,2;1713
2023-10-02 07:00:00;18,0;100333;82;0,0106;0,0;1,0;206;2,0;-0,44;-0,92;149;0;nan;20,1;16,8;10,9;19,2;14,3;14,6;15,1;15,3;14,7;15,0;1719
2023-10-02 08:00:00;21,5;100285;74;0,0118;0,0;1,1;222;2,3;-0,7;-0,78;264;0;nan;20,0;16,8;10,9;19,2;14,5;14,6;15,0;15,3;14,9;15,0;1717
2023-10-02 09:00:00;24,2;100250;66;0,0124;0,0;1,3;215;3,3;-0,75;-1,06;363;0;nan;20,0;16,8;10,9;19,2;14,9;14,7;15,0;15,3;15,1;14,6;1731
2023-10-02 10:00:00;25,6;100215;61;0,0125;0,0;0,9;222;2,6;-0,62;-0,68;406;0;nan;19,8;16,7;10,9;19,2;15,3;14,8;15,0;15,3;15,3;14,7;1726
2023-10-02 11:00:00;26,9;100170;57;0,0126;0,0;1,6;205;3,9;-0,67;-1,43;422;0;nan;19,7;16,7;10,9;19,2;15,7;15,0;15,0;15,3;15,5;14,7;1729
2023-10-02 12:00:00;27,8;100127;52;0,012;0,0;1,7;244;4,0;-1,43;-0,71;422;0;nan;19,6;16,7;10,9;19,2;16,1;15,2;15,0;15,3;15,7;14,5;1733
2023-10-02 13:00:00;28,3;100090;49;0,0118;0,0;1,3;261;3,1;-1,27;-0,19;374;0;nan;19,5;16,7;10,9;19,2;16,4;15,5;15,0;15,2;15,8;14,5;1733
2023-10-02 14:00:00;27,3;100045;52;0,0118;0,0;1,3;222;3,7;-0,89;-0,99;265;0;nan;19,4;16,7;10,9;19,2;16,6;15,6;15,1;15,2;15,9;14,4;1736
2023-10-02 15:00:00;26,0;99990;57;0,012;0,0;1,9;210;4,1;-0,96;-1,65;157;0;nan;19,3;16,7;10,9;19,2;16,7;15,8;15,2;15,2;16,0;14,4;1738
2023-10-02 16:00:00;24,9;99970;57;0,0112;0,0;2,3;207;4,5;-1,02;-2,04;79;0;nan;19,2;16,7;10,9;19,2;16,7;15,9;15,2;15,3;16,0;14,4;1737
2023-10-02 17:00:00;22,5;99980;59;0,01;0,0;1,8;200;3,0;-0,6;-1,68;17;0;nan;19,1;16,7;10,9;19,2;16,5;16,0;15,3;15,2;15,9;14,2;1742
2023-10-02 18:00:00;20,0;99945;69;0,0101;0,0;1,2;204;2,6;-0,49;-1,08;0;0;nan;19,1;16,7;10,9;19,2;16,2;16,0;15,4;15,3;15,7;14,3;1742
2023-10-02 19:00:00;17,6;99880;79;0,0099;0,0;0,9;188;2,3;-0,12;-0,81;0;0;nan;19,0;16,7;10,9;19,2;15,8;16,0;15,4;15,3;15,5;14,3;1740
2023-10-02 20:00:00;19,4;99826;75;0,0106;0,0;1,9;217;3,9;-1,11;-1,49;0;0;nan;19,0;16,7;10,9;19,2;15,6;15,8;15,4;15,3;15,4;14,3;1742
2023-10-02 21:00:00;19,1;99760;75;0,0104;0,0;1,3;215;4,7;-0,73;-1,04;0;0;nan;19,0;16,7;10,9;19,2;15,6;15,8;15,5;15,3;15,4;14,2;1742
2023-10-02 22:00:00;21,0;99690;69;0,0108;0,0;3,0;218;6,0;-1,86;-2,37;0;0;nan;19,0;16,7;10,9;19,2;15,5;15,7;15,5;15,3;15,4;14,3;1741
2023-10-02 23:00:00;20,5;99620;72;0,0109;0,0;2,2;215;4,3;-1,24;-1,76;0;0;nan;19,0;16,7;10,9;19,2;15,6;15,7;15,5;15,3;15,4;14,4;1738
2023-10-03 00:00:00;19,9;99545;72;0,0106;0,0;1,0;223;3,2;-0,68;-0,73;0;0;nan;19,0;16,7;10,9;19,2;15,5;15,6;15,5;15,3;15,4;14,5;1733
2023-10-03 01:00:00;21,9;99460;67;0,0111;0,0;1,5;236;6,1;-1,25;-0,84;0;0;nan;19,0;16,7;10,9;19,2;15,5;15,6;15,5;15,3;15,4;14,5;1733
2023-10-03 02:00:00;22,9;99390;63;0,0111;0,0;2,1;259;7,3;-2,05;-0,41;0;0;nan;19,0;16,7;10,9;19,2;15,7;15,6;15,5;15,3;15,5;14,7;1729
2023-10-03 03:00:00;22,4;99315;63;0,0107;0,0;2,0;251;6,2;-1,86;-0,64;0;0;nan;19,0;16,7;10,9;19,2;15,8;15,6;15,5;15,3;15,5;14,9;1722
2023-10-03 04:00:00;21,1;99320;67;0,0105;0,0;1,6;260;5,2;-1,59;-0,28;0;0;nan;19,0;16,7;10,9;19,2;15,8;15,7;15,5;15,4;15,6;14,9;1721
2023-10-03 05:00:00;20,4;99374;71;0,0106;0,0;1,6;258;4,8;-1,55;-0,33;1;0;nan;19,0;16,7;10,9;19,2;15,9;15,7;15,5;15,3;15,6;15,1;1716
2023-10-03 06:00:00;nan;nan;nan;nan;0,0;nan;nan;nan;nan;nan;nan;0;nan;19,0;16,7;10,9;19,2;15,9;15,7;15,5;15,4;15,6;15,1;1714
2023-10-03 07:00:00;19,8;99515;76;0,011;0,0;1,8;269;5,0;-1,74;-0,02;26;0;nan;18,9;16,7;10,9;19,2;15,9;15,8;15,5;15,4;15,6;15,2;1711
2023-10-03 08:00:00;20,1;99580;77;0,0114;0,0;4,1;291;9,0;-3,85;1,47;76;0;nan;18,9;16,7;10,9;19,2;16,0;15,8;15,5;15,4;15,7;15,2;1712
2023-10-03 09:00:00;nan;nan;nan;nan;0,0;nan;nan;nan;nan;nan;nan;0;nan;18,8;16,7;10,9;19,2;16,1;15,8;15,6;15,4;15,7;15,4;1706
2023-10-03 10:00:00;19,8;99658;79;0,0114;0,0;3,8;280;8,1;-3,74;0,68;82;0;nan;18,8;16,7;10,9;19,3;16,2;15,9;15,6;15,4;15,8;15,2;1711
2023-10-03 11:00:00;17,9;99720;87;0,0112;7,38;3,9;291;8,9;-3,63;1,42;47;0;nan;18,8;16,7;10,9;19,3;16,2;15,9;15,6;15,4;15,8;15,3;1709
2023-10-03 12:00:00;14,8;99858;98;0,0104;2,24;5,2;300;6,1;-4,17;2,45;79;0;nan;18,8;16,7;10,9;19,3;16,1;16,0;15,6;15,4;15,7;15,5;1702
2023-10-03 13:00:00;15,9;99960;92;0,0104;0,02;5,4;310;8,9;-4,1;3,44;164;0;nan;18,8;16,7;10,9;19,3;16,0;16,0;15,6;15,4;15,7;15,6;1698
2023-10-03 14:00:00;17,5;100040;80;0,01;0,0;5,6;312;10,0;-4,13;3,76;267;0;nan;18,8;16,7;10,9;19,3;16,0;15,9;15,6;15,4;15,7;15,9;1692
2023-10-03 15:00:00;16,9;100190;75;0,009;0,0;6,0;312;10,4;-4,49;3,98;144;0;nan;18,7;16,7;10,9;19,3;16,0;15,9;15,6;15,4;15,7;16,1;1686
2023-10-03 16:00:00;16,4;100340;76;0,0088;0,0;3,6;323;7,4;-2,17;2,89;74;0;nan;18,7;16,7;10,9;19,3;15,8;15,9;15,7;15,4;15,6;16,1;1684
2023-10-03 17:00:00;14,8;100500;76;0,0079;0,0;3,5;324;7,8;-2,05;2,86;7;0;nan;18,7;16,7;10,9;19,3;15,6;15,8;15,7;15,4;15,5;16,4;1675
2023-10-03 18:00:00;12,7;100628;78;0,0072;0,0;2,0;290;4,8;-1,91;0,69;0;0;nan;18,7;16,7;10,9;19,3;15,3;15,8;15,7;15,4;15,3;16,4;1675
2023-10-03 19:00:00;nan;nan;nan;nan;0,0;nan;nan;nan;nan;nan;nan;0;nan;18,7;16,7;10,9;19,3;15,0;15,6;15,7;15,4;15,2;16,4;1675
2023-10-03 20:00:00;12,0;100740;83;0,0072;0,0;1,4;272;4,7;-1,42;0,04;0;0;nan;18,7;16,7;10,9;19,3;14,8;15,5;15,7;15,4;15,1;16,7;1667
2023-10-03 21:00:00;11,2;100800;86;0,0071;0,0;0,8;272;3,3;-0,76;0,03;0;0;nan;18,7;16,7;10,9;19,3;14,6;15,3;15,6;15,4;15,0;16,8;1664
2023-10-03 22:00:00;12,2;100830;82;0,0072;0,0;2,6;276;6,1;-2,59;0,28;0;0;nan;18,7;16,7;10,9;19,3;14,4;15,2;15,6;15,4;14,9;16,8;1665
2023-10-03 23:00:00;nan;nan;nan;nan;0,0;nan;nan;nan;nan;nan;nan;0;nan;18,7;16,7;10,9;19,3;14,3;15,1;15,6;15,5;14,9;16,8;1664
2023-10-04 00:00:00;11,9;100830;85;0,0073;0,0;1,7;271;5,5;-1,7;0,03;0;0;nan;18,7;16,7;10,9;19,3;14,2;15,0;15,5;15,5;14,8;16,5;1672
2023-10-04 01:00:00;11,4;100900;89;0,0074;0,0;1,1;266;5,0;-1,09;-0,08;0;0;nan;18,8;16,7;10,9;19,3;14,1;14,9;15,5;15,4;14,8;16,7;1667
2023-10-04 02:00:00;11,6;100900;89;0,0075;0,0;1,2;265;4,7;-1,19;-0,11;0;0;nan;18,8;16,7;10,9;19,3;14,0;14,8;15,4;15,5;14,7;16,6;1670
2023-10-04 03:00:00;nan;nan;nan;nan;0,0;nan;nan;nan;nan;nan;nan;0;nan;18,8;16,7;10,9;19,3;14,0;14,7;15,4;15,5;14,7;16,4;1677
2023-10-04 04:00:00;11,1;100900;91;0,0074;0,0;0,8;232;3,4;-0,59;-0,46;0;0;nan;18,8;16,7;10,9;19,3;14,0;14,7;15,3;15,4;14,7;16,3;1679
2023-10-04 05:00:00;10,7;100910;91;0,0072;0,0;0,8;232;2,7;-0,63;-0,5;0;0;nan;18,8;16,7;10,9;19,3;13,9;14,6;15,3;15,4;14,6;16,2;1682
2023-10-04 06:00:00;11,0;100940;92;0,0075;0,0;0,8;267;3,4;-0,84;-0,04;55;0;nan;18,8;16,7;10,9;19,3;13,8;14,5;15,2;15,4;14,6;16,0;1688
2023-10-04 07:00:00;13,1;100980;90;0,0084;0,0;2,1;275;5,2;-2,13;0,18;177;0;nan;18,8;16,7;10,9;19,3;13,7;14,5;15,2;15,4;14,6;16,1;1686
2023-10-04 08:00:00;nan;nan;nan;nan;0,0;nan;nan;nan;nan;nan;nan;0;nan;18,8;16,7;10,9;19,3;13,8;14,4;15,1;15,4;14,6;16,1;1684
2023-10-04 09:00:00;14,7;101010;85;0,0088;0,0;2,6;278;5,9;-2,58;0,35;300;0;nan;18,8;16,7;10,9;19,3;14,0;14,4;15,1;15,4;14,7;16,1;1685
2023-10-04 10:00:00;15,8;101020;77;0,0086;0,0;3,6;288;7,2;-3,45;1,13;327;0;nan;18,7;16,7;10,9;19,3;14,2;14,5;15,0;15,4;14,8;16,2;1682
2023-10-04 11:00:00;16,4;101010;74;0,0085;0,0;4,5;291;7,4;-4,1;1,6;355;0;nan;18,7;16,7;10,9;19,3;14,4;14,5;15,0;15,4;14,9;16,1;1685
2023-10-04 12:00:00;16,2;101010;72;0,0082;0,0;4,4;299;7,6;-3,85;2,14;249;0;nan;18,7;16,7;10,9;19,3;14,6;14,6;15,0;15,4;15,0;16,1;1684
2023-10-04 13:00:00;16,4;100965;71;0,0082;0,0;3,3;300;6,7;-2,85;1,64;230;0;nan;18,7;16,7;10,9;19,3;14,7;14,7;15,0;15,4;15,0;16,0;1689
2023-10-04 14:00:00;16,3;100940;71;0,0081;0,0;2,7;297;5,5;-2,38;1,2;164;0;nan;18,6;16,7;10,9;19,3;14,8;14,7;15,0;15,3;15,1;16,2;1681
2023-10-04 15:00:00;16,1;100895;74;0,0083;0,0;1,3;284;3,3;-1,27;0,32;93;0;nan;18,6;16,7;10,9;19,3;14,8;14,8;15,0;15,3;15,1;16,3;1679
2023-10-04 16:00:00;15,8;100875;76;0,0084;0,0;0,8;265;2,8;-0,82;-0,06;60;0;nan;18,6;16,7;10,9;19,3;14,8;14,8;15,0;15,3;15,1;16,2;1680
2023-10-04 17:00:00;14,4;100885;80;0,0081;0,0;0,6;227;1,9;-0,46;-0,42;7;0;nan;18,6;16,7;10,9;19,3;14,7;14,8;15,0;15,3;15,0;15,9;1691
2023-10-04 18:00:00;12,8;100900;84;0,0077;0,0;1,0;223;1,8;-0,65;-0,69;0;0;nan;18,6;16,7;10,9;19,3;14,5;14,8;15,0;15,3;14,9;16,0;1689
2023-10-04 19:00:00;11,4;100897;88;0,0073;0,0;0,6;248;1,5;-0,49;-0,2;0;0;nan;18,7;16,7;10,9;19,3;14,2;14,8;15,0;15,3;14,8;16,0;1686
2023-10-04 20:00:00;11,4;100880;88;0,0073;0,0;0,5;214;1,3;-0,29;-0,43;0;0;nan;18,7;16,7;10,9;19,3;14,0;14,7;15,0;15,3;14,7;16,0;1687
2023-10-04 21:00:00;11,6;100849;87;0,0073;0,0;0,9;264;2,7;-0,84;-0,08;0;0;nan;18,7;16,7;10,9;19,2;13,9;14,6;15,0;15,3;14,6;15,9;1690
2023-10-04 22:00:00;12,7;100825;85;0,0077;0,0;1,3;266;3,0;-1,31;-0,1;0;0;nan;18,7;16,7;10,9;19,3;13,9;14,5;15,0;15,3;14,6;15,8;1693
2023-10-04 23:00:00;12,3;100770;86;0,0076;0,0;1,2;236;4,1;-0,96;-0,64;0;0;nan;18,7;16,7;10,9;19,2;13,8;14,4;14,9;15,3;14,5;15,8;1693
2023-10-05 00:00:00;11,9;100730;86;0,0074;0,0;2,1;221;3,8;-1,37;-1,59;0;0;nan;18,7;16,7;10,9;19,2;13,8;14,4;14,9;15,3;14,5;16,1;1686
2023-10-05 01:00:00;11,7;100720;88;0,0075;0,0;1,4;222;3,6;-0,94;-1,04;0;0;nan;18,7;16,7;10,9;19,2;13,8;14,3;14,9;15,3;14,5;15,9;1691
2023-10-05 02:00:00;11,3;100720;89;0,0074;0,0;1,4;223;2,8;-0,94;-0,99;0;0;nan;18,7;16,7;10,9;19,2;13,7;14,3;14,9;15,3;14,5;15,8;1693
2023-10-05 03:00:00;11,6;100700;88;0,0075;0,0;1,5;222;3,3;-1,01;-1,1;0;0;nan;18,7;16,7;10,9;19,2;13,7;14,3;14,8;15,2;14,4;15,8;1693
2023-10-05 04:00:00;12,0;100700;86;0,0075;0,0;1,1;238;3,1;-0,9;-0,56;0;0;nan;18,7;16,7;10,9;19,2;13,7;14,2;14,8;15,2;14,4;15,8;1692
2023-10-05 05:00:00;11,9;100680;86;0,0074;0,0;1,1;230;2,8;-0,86;-0,73;0;0;nan;18,7;16,7;10,9;19,2;13,6;14,2;14,8;15,2;14,4;15,7;1695
2023-10-05 06:00:00;12,4;100698;86;0,0077;0,0;1,2;247;3,3;-1,04;-0,43;25;0;nan;18,7;16,7;10,9;19,2;13,6;14,1;14,7;15,2;14,4;15,8;1693
2023-10-05 07:00:00;12,9;100700;86;0,0079;0,0;1,1;236;3,0;-0,91;-0,61;60;0;nan;18,7;16,7;10,9;19,2;13,7;14,1;14,7;15,2;14,4;15,6;1700
2023-10-05 08:00:00;13,8;100760;86;0,0084;0,0;1,6;272;5,7;-1,62;0,07;143;0;nan;18,7;16,7;10,9;19,2;13,8;14,1;14,7;15,2;14,5;15,5;1702
2023-10-05 09:00:00;14,9;100830;82;0,0086;0,0;3,4;293;6,2;-3,12;1,33;174;0;nan;18,7;16,7;10,9;19,2;13,9;14,1;14,7;15,2;14,5;15,4;1705
2023-10-05 10:00:00;nan;nan;nan;nan;0,0;nan;nan;nan;nan;nan;nan;0;nan;18,7;16,7;10,9;19,2;14,1;14,2;14,7;15,2;14,6;15,2;1711
2023-10-05 11:00:00;15,2;100845;78;0,0084;0,0;2,6;282;4,9;-2,5;0,52;162;0;nan;18,7;16,7;10,9;19,2;14,2;14,2;14,6;15,2;14,7;15,2;1710
2023-10-05 12:00:00;16,2;100800;78;0,0089;0,0;3,2;289;6,4;-2,98;1,05;316;0;nan;18,6;16,7;10,9;19,2;14,3;14,3;14,6;15,2;14,7;15,0;1717
2023-10-05 13:00:00;nan;nan;nan;nan;0,0;nan;nan;nan;nan;nan;nan;0;nan;18,6;16,6;10,9;19,2;14,5;14,4;14,6;15,1;14,8;15,2;1711
2023-10-05 14:00:00;16,4;100822;73;0,0084;0,0;3,3;304;5,7;-2,72;1,87;189;0;nan;18,6;16,6;10,9;19,2;14,5;14,5;14,7;15,1;14,8;14,8;1724
2023-10-05 15:00:00;nan;nan;nan;nan;0,0;nan;nan;nan;nan;nan;nan;0;nan;18,6;16,6;10,9;19,2;14,6;14,5;14,7;15,1;14,9;14,8;1725
2023-10-05 16:00:00;16,5;100800;72;0,0084;0,0;2,4;309;6,0;-1,88;1,5;115;0;nan;18,6;16,6;10,9;19,2;14,6;14,6;14,7;15,1;14,8;14,7;1727
2023-10-05 17:00:00;14,6;100840;77;0,0079;0,0;0,8;281;2,0;-0,78;0,15;11;0;nan;18,6;16,7;10,9;19,2;14,3;14,6;14,7;15,1;14,7;15,0;1717
2023-10-05 18:00:00;11,2;100880;88;0,0072;0,0;0,6;220;1,5;-0,4;-0,48;0;0;nan;18,6;16,7;10,9;19,2;14,0;14,5;14,7;15,1;14,5;15,0;1717
2023-10-05 19:00:00;nan;nan;nan;nan;0,0;nan;nan;nan;nan;nan;nan;0;nan;18,6;16,7;10,9;19,2;13,7;14,4;14,7;15,1;14,4;14,9;1721
2023-10-05 20:00:00;10,7;100880;92;0,0073;0,0;0,7;214;2,2;-0,38;-0,57;0;0;nan;18,6;16,7;10,9;19,2;13,6;14,3;14,7;15,1;14,3;14,7;1729
2023-10-05 21:00:00;10,5;100890;92;0,0072;0,0;0,7;226;2,1;-0,52;-0,51;0;0;nan;18,6;16,6;10,9;19,2;13,5;14,2;14,7;15,1;14,3;14,7;1728
2023-10-05 22:00:00;10,0;100900;92;0,007;0,0;0,8;227;2,4;-0,61;-0,56;0;0;nan;18,6;16,6;10,9;19,2;13,3;14,1;14,7;15,1;14,2;14,7;1726
2023-10-05 23:00:00;9,5;100860;94;0,0069;0,0;0,7;227;1,7;-0,53;-0,5;0;0;nan;18,6;16,6;10,9;19,2;13,1;14,0;14,7;15,1;14,1;14,7;1728
2023-10-06 00:00:00;9,6;100885;92;0,0068;0,0;0,7;228;2,0;-0,53;-0,47;0;0;nan;18,6;16,6;10,9;19,2;13,0;13,9;14,6;15,1;14,0;14,5;1735
2023-10-06 01:00:00;10,1;100853;92;0,007;0,04;0,7;239;2,1;-0,61;-0,37;0;0;nan;18,6;16,6;10,9;19,2;12,9;13,8;14,6;15,1;14,0;14,5;1734
2023-10-06 02:00:00;10,2;100830;91;0,007;0,02;0,6;255;1,7;-0,57;-0,15;0;0;nan;18,6;16,6;10,9;19,2;12,9;13,7;14,5;15,1;14,0;14,3;1739
2023-10-06 03:00:00;9,8;100820;92;0,0069;0,0;0,7;234;2,5;-0,58;-0,42;0;0;nan;18,6;16,6;10,9;19,2;12,9;13,6;14,5;15,0;13,9;14,5;1733
2023-10-06 04:00:00;9,8;100818;91;0,0068;0,04;1,1;225;2,4;-0,76;-0,76;0;0;nan;18,6;16,6;10,9;19,2;12,8;13,6;14,5;15,1;13,9;14,5;1734
2023-10-06 05:00:00;9,3;100780;92;0,0067;0,0;0,6;225;1,8;-0,44;-0,44;0;0;nan;18,7;16,6;10,9;19,2;12,7;13,5;14,4;15,0;13,9;14,5;1733
2023-10-06 06:00:00;9,3;100780;94;0,0068;0,02;0,5;259;1,8;-0,5;-0,1;39;0;nan;18,7;16,6;10,9;19,2;12,6;13,5;14,4;15,0;13,8;14,5;1734
2023-10-06 07:00:00;12,8;100810;91;0,0083;0,0;1,4;247;4,6;-1,27;-0,55;170;0;nan;18,7;16,6;10,9;19,2;12,6;13,4;14,3;15,0;13,8;14,5;1735
2023-10-06 08:00:00;nan;nan;nan;nan;0,0;nan;nan;nan;nan;nan;nan;0;nan;18,7;16,6;10,9;19,2;12,8;13,4;14,3;15,0;13,9;14,4;1737
2023-10-06 09:00:00;15,7;100770;81;0,0089;0,0;1,6;258;4,9;-1,53;-0,32;281;0;nan;18,6;16,6;10,9;19,2;13,1;13,4;14,3;15,0;14,0;14,5;1735
2023-10-06 10:00:00;18,4;100720;68;0,0089;0,0;1,6;256;4,0;-1,5;-0,37;372;0;nan;18,6;16,6;10,9;19,2;13,4;13,5;14,2;15,0;14,2;14,5;1734
2023-10-06 11:00:00;19,4;100678;61;0,0085;0,0;2,3;292;4,7;-2,09;0,86;413;0;nan;18,5;16,6;10,9;19,2;13,7;13,6;14,2;15,0;14,3;14,5;1735
2023-10-06 12:00:00;19,9;100655;58;0,0084;0,0;3,0;301;5,3;-2,6;1,54;388;0;nan;18,5;16,6;10,9;19,2;14,0;13,7;14,2;14,9;14,5;14,8;1723
2023-10-06 13:00:00;19,7;100640;60;0,0085;0,0;2,1;275;5,4;-2,08;0,18;288;0;nan;18,4;16,6;10,9;19,2;14,2;13,9;14,2;14,9;14,6;14,8;1725
2023-10-06 14:00:00;19,6;100620;59;0,0083;0,0;1,7;273;3,8;-1,67;0,09;202;0;nan;18,4;16,6;10,9;19,2;14,4;14,0;14,2;14,9;14,6;14,7;1728
2023-10-06 15:00:00;19,8;100587;60;0,0086;0,0;1,6;278;3,8;-1,59;0,24;142;0;nan;18,4;16,6;10,9;19,2;14,5;14,1;14,2;14,9;14,7;14,5;1732
2023-10-06 16:00:00;nan;nan;nan;nan;0,0;nan;nan;nan;nan;nan;nan;0;nan;18,3;16,6;10,9;19,2;14,5;14,2;14,2;14,9;14,7;14,6;1730
2023-10-06 17:00:00;17,9;100600;66;0,0084;0,0;0,8;271;2,8;-0,75;0,01;36;0;nan;18,3;16,6;10,9;19,2;14,4;14,3;14,3;14,9;14,6;14,5;1732
2023-10-06 18:00:00;14,3;100640;77;0,0078;0,0;0,6;207;1,3;-0,26;-0,5;0;0;nan;18,3;16,6;10,9;19,2;14,1;14,3;14,3;14,9;14,4;14,5;1733
2023-10-06 19:00:00;13,4;100630;81;0,0077;0,0;0,7;228;2,1;-0,49;-0,44;0;0;nan;18,3;16,6;10,9;19,2;13,8;14,2;14,4;14,9;14,3;14,6;1731
2023-10-06 20:00:00;nan;nan;nan;nan;0,0;nan;nan;nan;nan;nan;nan;0;nan;18,3;16,6;10,9;19,2;13,7;14,2;14,4;14,9;14,3;14,7;1727
2023-10-06 21:00:00;12,8;100620;84;0,0077;0,0;0,7;237;2,0;-0,6;-0,39;0;0;nan;18,3;16,6;10,9;19,2;13,5;14,1;14,4;14,8;14,2;14,5;1735
2023-10-06 22:00:00;12,7;100613;85;0,0077;0,0;0,9;245;2,0;-0,7;-0,32;0;0;nan;18,3;16,6;10,9;19,2;13,3;14,0;14,4;14,9;14,1;14,5;1735
2023-10-06 23:00:00;12,7;100590;86;0,0078;0,0;0,9;278;2,1;-0,87;0,13;0;0;nan;18,3;16,6;10,9;19,2;13,2;13,9;14,4;14,9;14,0;14,5;1735
2023-10-07 00:00:00;12,6;100580;86;0,0078;0,0;2,2;279;3,9;-2,15;0,35;0;0;nan;18,3;16,6;10,9;19,2;13,1;13,8;14,4;14,8;14,0;14,5;1733
2023-10-07 01:00:00;12,9;100560;87;0,008;0,0;1,8;278;4,5;-1,81;0,26;0;0;nan;18,3;16,6;10,9;19,2;13,1;13,7;14,4;14,8;13,9;14,4;1736
2023-10-07 02:00:00;11,2;100543;90;0,0074;0,0;0,6;212;1,5;-0,27;-0,43;0;0;nan;18,3;16,6;10,9;19,2;12,9;13,6;14,3;14,8;13,9;14,5;1733
2023-10-07 03:00:00;12,2;100535;90;0,0079;0,0;0,7;279;1,7;-0,68;0,11;0;0;nan;18,3;16,6;10,9;19,2;12,8;13,6;14,3;14,8;13,8;14,6;1732
2023-10-07 04:00:00;nan;nan;nan;nan;0,0;nan;nan;nan;nan;nan;nan;0;nan;18,3;16,6;10,9;19,2;12,8;13,5;14,3;14,9;13,8;14,5;1732
2023-10-07 05:00:00;13,2;100520;91;0,0086;0,0;0,9;266;2,7;-0,94;-0,07;0;0;nan;18,3;16,6;10,9;19,2;12,9;13,5;14,2;14,8;13,9;14,5;1732
2023-10-07 06:00:00;14,2;100510;91;0,0092;0,0;1,0;214;2,7;-0,58;-0,86;33;0;nan;18,3;16,6;10,9;19,2;13,0;13,5;14,2;14,8;13,9;14,8;1723
2023-10-07 07:00:00;nan;nan;nan;nan;0,0;nan;nan;nan;nan;nan;nan;0;nan;18,3;16,6;10,9;19,2;13,2;13,5;14,1;14,8;14,0;14,9;1720
2023-10-07 08:00:00;15,4;100540;89;0,0097;0,0;1,1;247;4,5;-0,99;-0,42;73;0;nan;18,3;16,6;10,9;19,2;13,4;13,5;14,1;14,8;14,1;14,9;1720
2023-10-07 09:00:00;16,5;100550;86;0,01;0,0;1,2;250;3,7;-1,13;-0,42;127;0;nan;18,3;16,6;10,9;19,2;13,6;13,6;14,1;14,8;14,2;14,8;1724
2023-10-07 10:00:00;19,1;100500;78;0,0107;0,0;2,6;276;6,2;-2,55;0,29;394;0;nan;18,3;16,6;10,9;19,2;13,9;13,7;14,1;14,8;14,4;15,0;1716
2023-10-07 11:00:00;nan;nan;nan;nan;0,0;nan;nan;nan;nan;nan;nan;0;nan;18,2;16,5;10,9;19,2;14,3;13,9;14,1;14,8;14,5;14,9;1720
2023-10-07 12:00:00;22,4;100457;66;0,0111;0,0;3,4;290;6,3;-3,23;1,16;409;0;nan;18,1;16,5;10,9;19,2;14,7;14,0;14,1;14,8;14,7;14,5;1733
2023-10-07 13:00:00;23,1;100453;63;0,011;0,0;4,0;286;7,2;-3,8;1,08;271;0;nan;18,1;16,5;10,9;19,2;15,0;14,2;14,2;14,8;14,9;14,4;1739
2023-10-07 14:00:00;23,6;100455;60;0,0108;0,0;4,3;295;8,4;-3,9;1,8;246;0;nan;18,0;16,5;10,9;19,2;15,2;14,4;14,2;14,8;15,0;14,5;1735
2023-10-07 15:00:00;23,1;100420;55;0,0097;0,0;3,8;286;7,4;-3,69;1,06;135;0;nan;18,0;16,5;10,9;19,2;15,3;14,6;14,2;14,8;15,0;14,4;1737
2023-10-07 16:00:00;nan;nan;nan;nan;0,0;nan;nan;nan;nan;nan;nan;0;nan;17,9;16,5;10,9;19,2;15,3;14,7;14,3;14,8;15,0;14,4;1736
2023-10-07 17:00:00;20,9;100485;60;0,0091;0,0;2,6;287;5,6;-2,51;0,78;8;0;nan;17,9;16,5;10,9;19,2;15,2;14,8;14,4;14,8;15,0;14,3;1739
2023-10-07 18:00:00;20,1;100480;63;0,0092;0,0;3,4;276;7,0;-3,4;0,38;0;0;nan;17,9;16,5;10,9;19,2;15,1;14,8;14,4;14,7;14,9;14,2;1744
2023-10-07 19:00:00;19,4;100533;67;0,0093;0,0;2,5;291;6,3;-2,36;0,89;0;0;nan;17,9;16,5;10,9;19,2;15,0;14,8;14,5;14,8;14,9;14,0;1750
2023-10-07 20:00:00;19,1;100537;66;0,009;0,0;2,0;275;5,6;-2,01;0,17;0;0;nan;17,9;16,5;10,9;19,2;14,9;14,8;14,5;14,8;14,8;13,9;1755
2023-10-07 21:00:00;19,4;100515;62;0,0087;0,0;1,9;281;4,5;-1,89;0,36;0;0;nan;17,9;16,5;10,9;19,2;14,8;14,8;14,6;14,7;14,8;13,9;1755
2023-10-07 22:00:00;18,2;100600;66;0,0085;0,0;1,6;288;4,5;-1,37;0,45;0;0;nan;17,9;16,5;10,9;19,2;14,8;14,8;14,6;14,8;14,8;13,9;1755
2023-10-07 23:00:00;19,2;100585;62;0,0085;0,0;3,9;280;6,6;-3,8;0,7;0;0;nan;17,8;16,5;10,9;19,2;14,7;14,8;14,6;14,8;14,7;13,8;1757
2023-10-08 00:00:00;18,4;100600;65;0,0085;0,0;2,2;277;5,3;-2,15;0,26;0;0;nan;17,8;16,5;10,9;19,2;14,7;14,7;14,6;14,8;14,7;13,7;1760
2023-10-08 01:00:00;14,8;100640;78;0,0081;0,0;0,8;192;1,4;-0,16;-0,74;0;0;nan;17,8;16,5;10,9;19,2;14,6;14,7;14,7;14,8;14,7;13,7;1760
2023-10-08 02:00:00;14,3;100640;78;0,0079;0,0;0,9;222;2,3;-0,49;-0,54;0;0;nan;17,8;16,5;10,9;19,2;14,3;14,7;14,7;14,8;14,6;13,8;1759
2023-10-08 03:00:00;13,7;100650;81;0,0079;0,0;0,8;239;1,5;-0,65;-0,39;0;0;nan;17,8;16,5;10,9;19,2;14,1;14,6;14,7;14,8;14,5;13,6;1766
2023-10-08 04:00:00;14,6;100660;80;0,0082;0,0;0,8;262;2,1;-0,75;-0,11;0;0;nan;17,8;16,5;10,9;19,2;14,1;14,5;14,7;14,8;14,4;13,5;1767
2023-10-08 05:00:00;14,0;100670;83;0,0082;0,0;0,9;290;2,1;-0,82;0,3;0;0;nan;17,8;16,5;10,9;19,2;14,0;14,5;14,7;14,8;14,4;13,5;1767
2023-10-08 06:00:00;14,0;100720;84;0,0083;0,0;0,4;242;1,2;-0,36;-0,2;20;0;nan;17,8;16,5;10,9;19,2;14,0;14,4;14,7;14,8;14,4;13,3;1774